Date_Time,Julian_Date,Latitude,Longitude,Instrument_Depth,U,V,Speed,Direction
(yyyy-mm-dd hh:mn:ss UTC),(JD),(+ deg. North),(+ deg. East),(m),(cm/s),(cm/s),(cm/s),(deg True)
1993-01-20 13:30:00 UTC,2449008.062500,27.4636,-96.0689,0013,-6.14,-1.31,6.2782,257.9562
1993-01-20 14:00:00 UTC,2449008.083333,27.4636,-96.0689,0013,-6.65,-2.29,7.0332,250.9983
1993-01-20 14:30:00 UTC,2449008.104167,27.4636,-96.0689,0013,-9.98,-3.43,10.5530,251.0328
1993-01-20 15:00:00 UTC,2449008.125000,27.4636,-96.0689,0013,-11.38,-5.31,12.5579,244.9859
1993-01-20 15:30:00 UTC,2449008.145833,27.4636,-96.0689,0013,-11.64,-4.01,12.3114,250.9911
1993-01-20 16:00:00 UTC,2449008.166667,27.4636,-96.0689,0013,-12.16,-1.93,12.3122,260.9814
1993-01-20 16:30:00 UTC,2449008.187500,27.4636,-96.0689,0013,-14.49,-1.52,14.5695,264.0116
1993-01-20 17:00:00 UTC,2449008.208333,27.4636,-96.0689,0013,-16.80,-0.88,16.8230,267.0015
1993-01-20 17:30:00 UTC,2449008.229167,27.4636,-96.0689,0013,-18.15,-2.55,18.3283,262.0025
1993-01-20 18:00:00 UTC,2449008.250000,27.4636,-96.0689,0013,-17.83,-0.62,17.8408,268.0085
1993-01-20 18:30:00 UTC,2449008.270833,27.4636,-96.0689,0013,-20.09,0.35,20.0930,270.9981
1993-01-20 19:00:00 UTC,2449008.291667,27.4636,-96.0689,0013,-20.40,2.87,20.6009,278.0082
1993-01-20 19:30:00 UTC,2449008.312500,27.4636,-96.0689,0013,-20.31,6.60,21.3555,288.0023
1993-01-20 20:00:00 UTC,2449008.333333,27.4636,-96.0689,0013,-18.58,9.47,20.8542,297.0074
1993-01-20 20:30:00 UTC,2449008.354167,27.4636,-96.0689,0013,-16.01,12.96,20.5981,308.9900
1993-01-20 21:00:00 UTC,2449008.375000,27.4636,-96.0689,0013,-15.54,15.00,21.5984,313.9870
1993-01-20 21:30:00 UTC,2449008.395833,27.4636,-96.0689,0013,-15.25,16.35,22.3581,316.9937
1993-01-20 22:00:00 UTC,2449008.416667,27.4636,-96.0689,0013,-12.70,16.85,21.1001,322.9943
1993-01-20 22:30:00 UTC,2449008.437500,27.4636,-96.0689,0013,-11.31,18.11,21.3515,328.0145
1993-01-20 23:00:00 UTC,2449008.458333,27.4636,-96.0689,0013,-10.47,18.89,21.5975,331.0021
1993-01-20 23:30:00 UTC,2449008.479167,27.4636,-96.0689,0013,-9.92,19.47,21.8515,333.0011
1993-01-21 00:00:00 UTC,2449008.500000,27.4636,-96.0689,0013,-9.47,19.41,21.5970,333.9926
1993-01-21 00:30:00 UTC,2449008.520833,27.4636,-96.0689,0013,-8.54,20.11,21.8482,336.9908
1993-01-21 01:00:00 UTC,2449008.541667,27.4636,-96.0689,0013,-6.99,21.50,22.6077,341.9898
1993-01-21 01:30:00 UTC,2449008.562500,27.4636,-96.0689,0013,-5.09,22.03,22.6104,346.9902
1993-01-21 02:00:00 UTC,2449008.583333,27.4636,-96.0689,0013,-4.69,20.32,20.8542,347.0033
1993-01-21 02:30:00 UTC,2449008.604167,27.4636,-96.0689,0013,-4.52,19.58,20.0949,347.0011
1993-01-21 03:00:00 UTC,2449008.625000,27.4636,-96.0689,0013,-4.88,18.20,18.8429,344.9902
1993-01-21 03:30:00 UTC,2449008.645833,27.4636,-96.0689,0013,-4.41,19.10,19.6025,346.9988
1993-01-21 04:00:00 UTC,2449008.666667,27.4636,-96.0689,0013,-3.40,17.51,17.8370,349.0114
1993-01-21 04:30:00 UTC,2449008.687500,27.4636,-96.0689,0013,-2.38,16.91,17.0767,351.9885
1993-01-21 05:00:00 UTC,2449008.708333,27.4636,-96.0689,0013,-0.79,15.05,15.0707,356.9952
1993-01-21 05:30:00 UTC,2449008.729167,27.4636,-96.0689,0013,0.48,13.80,13.8083,1.9921
1993-01-21 06:00:00 UTC,2449008.750000,27.4636,-96.0689,0013,1.07,12.26,12.3066,4.9879
1993-01-21 06:30:00 UTC,2449008.770833,27.4636,-96.0689,0013,1.69,10.67,10.8030,9.0002
1993-01-21 07:00:00 UTC,2449008.791667,27.4636,-96.0689,0013,1.97,10.11,10.3001,11.0263
1993-01-21 07:30:00 UTC,2449008.812500,27.4636,-96.0689,0013,2.09,9.05,9.2882,13.0039
1993-01-21 08:00:00 UTC,2449008.833333,27.4636,-96.0689,0013,2.21,6.41,6.7803,19.0229
1993-01-21 08:30:00 UTC,2449008.854167,27.4636,-96.0689,0013,2.21,4.52,5.0314,26.0558
1993-01-21 09:00:00 UTC,2449008.875000,27.4636,-96.0689,0013,1.73,2.47,3.0156,35.0076
1993-01-21 09:30:00 UTC,2449008.895833,27.4636,-96.0689,0013,0.84,0.93,1.2532,42.0892
1993-01-21 10:00:00 UTC,2449008.916667,27.4636,-96.0689,0013,0.00,0.00,0.0000,0.0000
1993-01-21 10:30:00 UTC,2449008.937500,27.4636,-96.0689,0013,0.00,0.00,0.0000,0.0000
1993-01-21 11:00:00 UTC,2449008.958333,27.4636,-96.0689,0013,0.25,0.02,0.2508,85.4261
1993-01-21 11:30:00 UTC,2449008.979167,27.4636,-96.0689,0013,0.00,0.00,0.0000,0.0000
1993-01-21 12:00:00 UTC,2449009.000000,27.4636,-96.0689,0013,0.00,0.00,0.0000,0.0000
1993-01-21 12:30:00 UTC,2449009.020833,27.4636,-96.0689,0013,0.16,-0.19,0.2484,139.8991
1993-01-21 13:00:00 UTC,2449009.041667,27.4636,-96.0689,0013,0.00,0.00,0.0000,0.0000
1993-01-21 13:30:00 UTC,2449009.062500,27.4636,-96.0689,0013,0.00,0.00,0.0000,0.0000
1993-01-21 14:00:00 UTC,2449009.083333,27.4636,-96.0689,0013,0.00,0.00,0.0000,0.0000
1993-01-21 14:30:00 UTC,2449009.104167,27.4636,-96.0689,0013,0.00,0.00,0.0000,0.0000
1993-01-21 15:00:00 UTC,2449009.125000,27.4636,-96.0689,0013,0.00,0.00,0.0000,0.0000
1993-01-21 15:30:00 UTC,2449009.145833,27.4636,-96.0689,0013,0.00,0.00,0.0000,0.0000
1993-01-21 16:00:00 UTC,2449009.166667,27.4636,-96.0689,0013,0.00,0.00,0.0000,0.0000
1993-01-21 16:30:00 UTC,2449009.187500,27.4636,-96.0689,0013,0.00,0.00,0.0000,0.0000
1993-01-21 17:00:00 UTC,2449009.208333,27.4636,-96.0689,0013,0.00,0.00,0.0000,0.0000
1993-01-21 17:30:00 UTC,2449009.229167,27.4636,-96.0689,0013,0.00,0.00,0.0000,0.0000
1993-01-21 18:00:00 UTC,2449009.250000,27.4636,-96.0689,0013,0.00,0.00,0.0000,0.0000
1993-01-21 18:30:00 UTC,2449009.270833,27.4636,-96.0689,0013,0.00,0.00,0.0000,0.0000
1993-01-21 19:00:00 UTC,2449009.291667,27.4636,-96.0689,0013,0.00,0.00,0.0000,0.0000
1993-01-21 19:30:00 UTC,2449009.312500,27.4636,-96.0689,0013,0.00,0.00,0.0000,0.0000
1993-01-21 20:00:00 UTC,2449009.333333,27.4636,-96.0689,0013,0.00,0.00,0.0000,0.0000
1993-01-21 20:30:00 UTC,2449009.354167,27.4636,-96.0689,0013,0.00,0.00,0.0000,0.0000
1993-01-21 21:00:00 UTC,2449009.375000,27.4636,-96.0689,0013,0.00,0.00,0.0000,0.0000
1993-01-21 21:30:00 UTC,2449009.395833,27.4636,-96.0689,0013,0.00,0.00,0.0000,0.0000
1993-01-21 22:00:00 UTC,2449009.416667,27.4636,-96.0689,0013,0.00,0.00,0.0000,0.0000
1993-01-21 22:30:00 UTC,2449009.437500,27.4636,-96.0689,0013,0.25,0.44,0.5061,29.6045
1993-01-21 23:00:00 UTC,2449009.458333,27.4636,-96.0689,0013,0.44,0.61,0.7521,35.8033
1993-01-21 23:30:00 UTC,2449009.479167,27.4636,-96.0689,0013,2.74,3.91,4.7745,35.0215
1993-01-22 00:00:00 UTC,2449009.500000,27.4636,-96.0689,0013,3.54,4.88,6.0288,35.9575
1993-01-22 00:30:00 UTC,2449009.520833,27.4636,-96.0689,0013,5.19,4.36,6.7783,49.9671
1993-01-22 01:00:00 UTC,2449009.541667,27.4636,-96.0689,0013,9.80,6.13,11.5593,57.9736
1993-01-22 01:30:00 UTC,2449009.562500,27.4636,-96.0689,0013,11.08,6.92,13.0634,58.0132
1993-01-22 02:00:00 UTC,2449009.583333,27.4636,-96.0689,0013,11.64,8.77,14.5740,53.0043
1993-01-22 02:30:00 UTC,2449009.604167,27.4636,-96.0689,0013,13.84,10.43,17.3300,52.9979
1993-01-22 03:00:00 UTC,2449009.625000,27.4636,-96.0689,0013,15.20,10.25,18.3331,56.0065
1993-01-22 03:30:00 UTC,2449009.645833,27.4636,-96.0689,0013,16.54,6.68,17.8380,68.0077
1993-01-22 04:00:00 UTC,2449009.666667,27.4636,-96.0689,0013,17.62,5.05,18.3294,74.0074
1993-01-22 04:30:00 UTC,2449009.687500,27.4636,-96.0689,0013,18.43,3.92,18.8423,77.9923
1993-01-22 05:00:00 UTC,2449009.708333,27.4636,-96.0689,0013,18.83,0.66,18.8416,87.9926
1993-01-22 05:30:00 UTC,2449009.729167,27.4636,-96.0689,0013,18.49,-3.59,18.8353,100.9878
1993-01-22 06:00:00 UTC,2449009.750000,27.4636,-96.0689,0013,17.38,-4.01,17.8366,102.9922
1993-01-22 06:30:00 UTC,2449009.770833,27.4636,-96.0689,0013,14.81,-4.81,15.5715,107.9928
1993-01-22 07:00:00 UTC,2449009.791667,27.4636,-96.0689,0013,11.93,-1.68,12.0477,98.0158
1993-01-22 07:30:00 UTC,2449009.812500,27.4636,-96.0689,0013,11.52,-1.01,11.5642,95.0105
1993-01-22 08:00:00 UTC,2449009.833333,27.4636,-96.0689,0013,11.17,-3.84,11.8116,108.9718
1993-01-22 08:30:00 UTC,2449009.854167,27.4636,-96.0689,0013,10.99,-3.57,11.5553,107.9959
1993-01-22 09:00:00 UTC,2449009.875000,27.4636,-96.0689,0013,10.86,-3.95,11.5560,109.9873
1993-01-22 09:30:00 UTC,2449009.895833,27.4636,-96.0689,0013,9.40,-4.79,10.5501,117.0022
1993-01-22 10:00:00 UTC,2449009.916667,27.4636,-96.0689,0013,6.69,-2.17,7.0331,107.9712
1993-01-22 10:30:00 UTC,2449009.937500,27.4636,-96.0689,0013,7.41,-2.41,7.7921,108.0164
1993-01-22 11:00:00 UTC,2449009.958333,27.4636,-96.0689,0013,5.71,-0.80,5.7658,97.9755
1993-01-22 11:30:00 UTC,2449009.979167,27.4636,-96.0689,0013,6.16,-1.20,6.2758,101.0235
1993-01-22 12:00:00 UTC,2449010.000000,27.4636,-96.0689,0013,6.88,-1.46,7.0332,101.9810
1993-01-22 12:30:00 UTC,2449010.020833,27.4636,-96.0689,0013,6.94,-1.10,7.0266,99.0065
1993-01-22 13:00:00 UTC,2449010.041667,27.4636,-96.0689,0013,8.19,-1.30,8.2925,99.0193
1993-01-22 13:30:00 UTC,2449010.062500,27.4636,-96.0689,0013,10.74,-1.13,10.7993,96.0062
1993-01-22 14:00:00 UTC,2449010.083333,27.4636,-96.0689,0013,10.05,-0.18,10.0516,91.0261
1993-01-22 14:30:00 UTC,2449010.104167,27.4636,-96.0689,0013,9.25,0.81,9.2854,84.9955
1993-01-22 15:00:00 UTC,2449010.125000,27.4636,-96.0689,0013,8.97,2.40,9.2855,75.0209
1993-01-22 15:30:00 UTC,2449010.145833,27.4636,-96.0689,0013,9.50,3.27,10.0470,71.0060
1993-01-22 16:00:00 UTC,2449010.166667,27.4636,-96.0689,0013,8.85,3.57,9.5429,68.0313
1993-01-22 16:30:00 UTC,2449010.187500,27.4636,-96.0689,0013,9.01,4.99,10.2995,61.0210
1993-01-22 17:00:00 UTC,2449010.208333,27.4636,-96.0689,0013,8.33,6.05,10.2952,54.0094
1993-01-22 17:30:00 UTC,2449010.229167,27.4636,-96.0689,0013,8.75,5.90,10.5533,56.0088
1993-01-22 18:00:00 UTC,2449010.250000,27.4636,-96.0689,0013,8.95,5.59,10.5523,58.0119
1993-01-22 18:30:00 UTC,2449010.270833,27.4636,-96.0689,0013,9.35,6.79,11.5554,54.0127
1993-01-22 19:00:00 UTC,2449010.291667,27.4636,-96.0689,0013,9.62,7.25,12.0460,52.9969
1993-01-22 19:30:00 UTC,2449010.312500,27.4636,-96.0689,0013,10.11,5.60,11.5573,61.0176
1993-01-22 20:00:00 UTC,2449010.333333,27.4636,-96.0689,0013,10.02,6.26,11.8147,58.0049
1993-01-22 20:30:00 UTC,2449010.354167,27.4636,-96.0689,0013,11.06,5.40,12.3079,63.9762
1993-01-22 21:00:00 UTC,2449010.375000,27.4636,-96.0689,0013,11.09,6.41,12.8092,59.9722
1993-01-22 21:30:00 UTC,2449010.395833,27.4636,-96.0689,0013,12.22,7.94,14.5730,56.9860
1993-01-22 22:00:00 UTC,2449010.416667,27.4636,-96.0689,0013,14.83,10.77,18.3282,54.0117
1993-01-22 22:30:00 UTC,2449010.437500,27.4636,-96.0689,0013,18.92,10.93,21.8502,59.9852
1993-01-22 23:00:00 UTC,2449010.458333,27.4636,-96.0689,0013,20.90,7.20,22.1054,70.9913
1993-01-22 23:30:00 UTC,2449010.479167,27.4636,-96.0689,0013,21.26,9.03,23.0982,66.9871
1993-01-23 00:00:00 UTC,2449010.500000,27.4636,-96.0689,0013,21.71,7.90,23.1027,70.0042
1993-01-23 00:30:00 UTC,2449010.520833,27.4636,-96.0689,0013,23.75,5.48,24.3740,77.0071
1993-01-23 01:00:00 UTC,2449010.541667,27.4636,-96.0689,0013,23.84,5.07,24.3731,77.9939
1993-01-23 01:30:00 UTC,2449010.562500,27.4636,-96.0689,0013,24.60,7.99,25.8650,72.0064
1993-01-23 02:00:00 UTC,2449010.583333,27.4636,-96.0689,0013,25.42,8.75,26.8838,71.0057
1993-01-23 02:30:00 UTC,2449010.604167,27.4636,-96.0689,0013,26.04,5.53,26.6207,78.0105
1993-01-23 03:00:00 UTC,2449010.625000,27.4636,-96.0689,0013,24.22,8.34,25.6157,70.9992
1993-01-23 03:30:00 UTC,2449010.645833,27.4636,-96.0689,0013,23.52,9.50,25.3661,68.0056
1993-01-23 04:00:00 UTC,2449010.666667,27.4636,-96.0689,0013,24.27,10.30,26.3652,67.0040
1993-01-23 04:30:00 UTC,2449010.687500,27.4636,-96.0689,0013,25.35,7.27,26.3719,73.9979
1993-01-23 05:00:00 UTC,2449010.708333,27.4636,-96.0689,0013,25.21,5.82,25.8731,77.0004
1993-01-23 05:30:00 UTC,2449010.729167,27.4636,-96.0689,0013,25.80,4.09,26.1222,80.9920
1993-01-23 06:00:00 UTC,2449010.750000,27.4636,-96.0689,0013,25.73,2.70,25.8713,84.0095
1993-01-23 06:30:00 UTC,2449010.770833,27.4636,-96.0689,0013,24.48,4.32,24.8583,79.9920
1993-01-23 07:00:00 UTC,2449010.791667,27.4636,-96.0689,0013,23.34,4.96,23.8612,78.0025
1993-01-23 07:30:00 UTC,2449010.812500,27.4636,-96.0689,0013,22.36,4.75,22.8590,78.0068
1993-01-23 08:00:00 UTC,2449010.833333,27.4636,-96.0689,0013,21.03,3.71,21.3547,79.9951
1993-01-23 08:30:00 UTC,2449010.854167,27.4636,-96.0689,0013,20.53,3.62,20.8467,80.0000
1993-01-23 09:00:00 UTC,2449010.875000,27.4636,-96.0689,0013,19.05,3.36,19.3440,79.9972
1993-01-23 09:30:00 UTC,2449010.895833,27.4636,-96.0689,0013,18.35,2.91,18.5793,80.9889
1993-01-23 10:00:00 UTC,2449010.916667,27.4636,-96.0689,0013,18.10,4.18,18.5764,76.9961
1993-01-23 10:30:00 UTC,2449010.937500,27.4636,-96.0689,0013,17.95,4.81,18.5833,74.9991
1993-01-23 11:00:00 UTC,2449010.958333,27.4636,-96.0689,0013,17.95,4.81,18.5833,74.9991
1993-01-23 11:30:00 UTC,2449010.979167,27.4636,-96.0689,0013,17.70,7.15,19.0896,68.0035
1993-01-23 12:00:00 UTC,2449011.000000,27.4636,-96.0689,0013,17.30,8.07,19.0897,64.9922
1993-01-23 12:30:00 UTC,2449011.020833,27.4636,-96.0689,0013,20.49,9.56,22.6105,64.9877
1993-01-23 13:00:00 UTC,2449011.041667,27.4636,-96.0689,0013,22.83,11.63,25.6216,63.0049
1993-01-23 13:30:00 UTC,2449011.062500,27.4636,-96.0689,0013,26.18,13.34,29.3828,62.9989
1993-01-23 14:00:00 UTC,2449011.083333,27.4636,-96.0689,0013,27.02,14.98,30.8947,60.9958
1993-01-23 14:30:00 UTC,2449011.104167,27.4636,-96.0689,0013,28.67,13.98,31.8969,64.0053
1993-01-23 15:00:00 UTC,2449011.125000,27.4636,-96.0689,0013,27.32,12.74,30.1445,64.9992
1993-01-23 15:30:00 UTC,2449011.145833,27.4636,-96.0689,0013,26.63,12.42,29.3839,64.9961
1993-01-23 16:00:00 UTC,2449011.166667,27.4636,-96.0689,0013,27.99,13.65,31.1410,64.0027
1993-01-23 16:30:00 UTC,2449011.187500,27.4636,-96.0689,0013,28.12,15.59,32.1525,60.9956
1993-01-23 17:00:00 UTC,2449011.208333,27.4636,-96.0689,0013,26.81,14.86,30.6528,61.0017
1993-01-23 17:30:00 UTC,2449011.229167,27.4636,-96.0689,0013,27.52,14.02,30.8854,63.0035
1993-01-23 18:00:00 UTC,2449011.250000,27.4636,-96.0689,0013,25.97,12.66,28.8915,64.0114
1993-01-23 18:30:00 UTC,2449011.270833,27.4636,-96.0689,0013,23.70,11.56,26.3690,63.9986
1993-01-23 19:00:00 UTC,2449011.291667,27.4636,-96.0689,0013,25.51,12.44,28.3816,64.0037
1993-01-23 19:30:00 UTC,2449011.312500,27.4636,-96.0689,0013,24.38,11.89,27.1248,64.0017
1993-01-23 20:00:00 UTC,2449011.333333,27.4636,-96.0689,0013,24.50,10.40,26.6160,66.9993
1993-01-23 20:30:00 UTC,2449011.354167,27.4636,-96.0689,0013,24.07,8.76,25.6145,70.0016
1993-01-23 21:00:00 UTC,2449011.375000,27.4636,-96.0689,0013,23.75,9.60,25.6168,67.9909
1993-01-23 21:30:00 UTC,2449011.395833,27.4636,-96.0689,0013,29.09,14.82,32.6475,63.0033
1993-01-23 22:00:00 UTC,2449011.416667,27.4636,-96.0689,0013,28.20,14.37,31.6502,62.9978
1993-01-23 22:30:00 UTC,2449011.437500,27.4636,-96.0689,0013,27.32,12.74,30.1445,64.9992
1993-01-23 23:00:00 UTC,2449011.458333,27.4636,-96.0689,0013,29.03,10.57,30.8944,69.9931
1993-01-23 23:30:00 UTC,2449011.479167,27.4636,-96.0689,0013,26.75,8.69,28.1261,72.0031
1993-01-24 00:00:00 UTC,2449011.500000,27.4636,-96.0689,0013,28.19,9.16,29.6409,71.9990
1993-01-24 00:30:00 UTC,2449011.520833,27.4636,-96.0689,0013,29.86,9.70,31.3960,72.0036
1993-01-24 01:00:00 UTC,2449011.541667,27.4636,-96.0689,0013,29.69,10.22,31.3998,71.0053
1993-01-24 01:30:00 UTC,2449011.562500,27.4636,-96.0689,0013,27.48,8.93,28.8946,71.9977
1993-01-24 02:00:00 UTC,2449011.583333,27.4636,-96.0689,0013,26.99,8.77,28.3791,71.9992
1993-01-24 02:30:00 UTC,2449011.604167,27.4636,-96.0689,0013,25.21,5.82,25.8731,77.0004
1993-01-24 03:00:00 UTC,2449011.625000,27.4636,-96.0689,0013,24.24,4.27,24.6132,80.0096
1993-01-24 03:30:00 UTC,2449011.645833,27.4636,-96.0689,0013,23.13,3.25,23.3572,82.0017
1993-01-24 04:00:00 UTC,2449011.666667,27.4636,-96.0689,0013,23.63,3.32,23.8621,82.0023
1993-01-24 04:30:00 UTC,2449011.687500,27.4636,-96.0689,0013,23.38,3.29,23.6103,81.9900
1993-01-24 05:00:00 UTC,2449011.708333,27.4636,-96.0689,0013,22.85,4.86,23.3611,77.9926
1993-01-24 05:30:00 UTC,2449011.729167,27.4636,-96.0689,0013,22.85,4.86,23.3611,77.9926
1993-01-24 06:00:00 UTC,2449011.750000,27.4636,-96.0689,0013,23.75,4.19,24.1168,79.9948
1993-01-24 06:30:00 UTC,2449011.770833,27.4636,-96.0689,0013,22.64,3.18,22.8622,82.0046
1993-01-24 07:00:00 UTC,2449011.791667,27.4636,-96.0689,0013,20.89,2.94,21.0959,81.9890
1993-01-24 07:30:00 UTC,2449011.812500,27.4636,-96.0689,0013,20.59,3.26,20.8465,81.0031
1993-01-24 08:00:00 UTC,2449011.833333,27.4636,-96.0689,0013,21.37,4.54,21.8469,78.0060
1993-01-24 08:30:00 UTC,2449011.854167,27.4636,-96.0689,0013,22.08,5.92,22.8599,74.9911
1993-01-24 09:00:00 UTC,2449011.875000,27.4636,-96.0689,0013,20.64,4.39,21.1017,77.9925
1993-01-24 09:30:00 UTC,2449011.895833,27.4636,-96.0689,0013,17.48,1.84,17.5766,83.9910
1993-01-24 10:00:00 UTC,2449011.916667,27.4636,-96.0689,0013,15.07,-0.26,15.0722,90.9884
1993-01-24 10:30:00 UTC,2449011.937500,27.4636,-96.0689,0013,15.07,0.26,15.0722,89.0116
1993-01-24 11:00:00 UTC,2449011.958333,27.4636,-96.0689,0013,13.80,-2.68,14.0578,100.9902
1993-01-24 11:30:00 UTC,2449011.979167,27.4636,-96.0689,0013,13.54,-6.61,15.0673,116.0208
1993-01-24 12:00:00 UTC,2449012.000000,27.4636,-96.0689,0013,11.19,-5.70,12.5581,116.9935
1993-01-24 12:30:00 UTC,2449012.020833,27.4636,-96.0689,0013,7.83,-5.90,9.8040,126.9985
1993-01-24 13:00:00 UTC,2449012.041667,27.4636,-96.0689,0013,4.39,-7.61,8.7855,150.0205
1993-01-24 13:30:00 UTC,2449012.062500,27.4636,-96.0689,0013,4.63,-8.34,9.5390,150.9629
1993-01-24 14:00:00 UTC,2449012.083333,27.4636,-96.0689,0013,-0.79,-9.01,9.0446,185.0109
1993-01-24 14:30:00 UTC,2449012.104167,27.4636,-96.0689,0013,-8.91,-9.55,13.0610,223.0144
1993-01-24 15:00:00 UTC,2449012.125000,27.4636,-96.0689,0013,-8.98,-7.27,11.5539,231.0072
1993-01-24 15:30:00 UTC,2449012.145833,27.4636,-96.0689,0013,-9.27,-6.02,11.0532,237.0000
1993-01-24 16:00:00 UTC,2449012.166667,27.4636,-96.0689,0013,-12.08,-8.15,14.5722,235.9937
1993-01-24 16:30:00 UTC,2449012.187500,27.4636,-96.0689,0013,-14.26,-8.91,16.8147,238.0018
1993-01-24 17:00:00 UTC,2449012.208333,27.4636,-96.0689,0013,-20.22,-3.93,20.5984,259.0010
1993-01-24 17:30:00 UTC,2449012.229167,27.4636,-96.0689,0013,-16.17,2.27,16.3286,277.9911
1993-01-24 18:00:00 UTC,2449012.250000,27.4636,-96.0689,0013,-18.35,2.91,18.5793,279.0111
1993-01-24 18:30:00 UTC,2449012.270833,27.4636,-96.0689,0013,-18.59,5.33,19.3390,285.9983
1993-01-24 19:00:00 UTC,2449012.291667,27.4636,-96.0689,0013,-16.50,4.42,17.0818,284.9962
1993-01-24 19:30:00 UTC,2449012.312500,27.4636,-96.0689,0013,-12.98,6.05,14.3207,294.9903
1993-01-24 20:00:00 UTC,2449012.333333,27.4636,-96.0689,0013,-13.54,9.13,16.3306,303.9917
1993-01-24 20:30:00 UTC,2449012.354167,27.4636,-96.0689,0013,-12.17,13.05,17.8441,316.9984
1993-01-24 21:00:00 UTC,2449012.375000,27.4636,-96.0689,0013,-10.51,16.83,19.8421,328.0161
1993-01-24 21:30:00 UTC,2449012.395833,27.4636,-96.0689,0013,-6.67,20.54,21.5958,342.0097
1993-01-24 22:00:00 UTC,2449012.416667,27.4636,-96.0689,0013,-3.81,24.07,24.3697,351.0054
1993-01-24 22:30:00 UTC,2449012.437500,27.4636,-96.0689,0013,-6.72,29.12,29.8853,347.0054
1993-01-24 23:00:00 UTC,2449012.458333,27.4636,-96.0689,0013,-8.47,36.70,37.6647,347.0042
1993-01-24 23:30:00 UTC,2449012.479167,27.4636,-96.0689,0013,-5.56,39.55,39.9389,351.9977
1993-01-25 00:00:00 UTC,2449012.500000,27.4636,-96.0689,0013,-1.40,40.17,40.1944,358.0039
1993-01-25 00:30:00 UTC,2449012.520833,27.4636,-96.0689,0013,3.48,39.79,39.9419,4.9983
1993-01-25 01:00:00 UTC,2449012.541667,27.4636,-96.0689,0013,6.40,40.44,40.9433,8.9930
1993-01-25 01:30:00 UTC,2449012.562500,27.4636,-96.0689,0013,9.49,41.11,42.1911,12.9987
1993-01-25 02:00:00 UTC,2449012.583333,27.4636,-96.0689,0013,14.34,39.41,41.9379,19.9948
1993-01-25 02:30:00 UTC,2449012.604167,27.4636,-96.0689,0013,18.39,37.70,41.9462,26.0030
1993-01-25 03:00:00 UTC,2449012.625000,27.4636,-96.0689,0013,20.33,36.68,41.9372,28.9975
1993-01-25 03:30:00 UTC,2449012.645833,27.4636,-96.0689,0013,22.03,33.92,40.4461,33.0025
1993-01-25 04:00:00 UTC,2449012.666667,27.4636,-96.0689,0013,23.03,31.70,39.1825,35.9983
1993-01-25 04:30:00 UTC,2449012.687500,27.4636,-96.0689,0013,25.02,29.82,38.9260,39.9978
1993-01-25 05:00:00 UTC,2449012.708333,27.4636,-96.0689,0013,26.87,27.82,38.6775,44.0048
1993-01-25 05:30:00 UTC,2449012.729167,27.4636,-96.0689,0013,27.55,25.69,37.6693,47.0009
1993-01-25 06:00:00 UTC,2449012.750000,27.4636,-96.0689,0013,28.89,23.39,37.1716,51.0056
1993-01-25 06:30:00 UTC,2449012.770833,27.4636,-96.0689,0013,29.99,20.23,36.1753,55.9980
1993-01-25 07:00:00 UTC,2449012.791667,27.4636,-96.0689,0013,30.46,17.58,35.1691,60.0086
1993-01-25 07:30:00 UTC,2449012.812500,27.4636,-96.0689,0013,30.31,16.80,34.6545,61.0016
1993-01-25 08:00:00 UTC,2449012.833333,27.4636,-96.0689,0013,30.70,14.97,34.1554,64.0051
1993-01-25 08:30:00 UTC,2449012.854167,27.4636,-96.0689,0013,28.68,13.38,31.6475,64.9897
1993-01-25 09:00:00 UTC,2449012.875000,27.4636,-96.0689,0013,28.80,10.48,30.6475,70.0041
1993-01-25 09:30:00 UTC,2449012.895833,27.4636,-96.0689,0013,27.94,9.08,29.3784,71.9968
1993-01-25 10:00:00 UTC,2449012.916667,27.4636,-96.0689,0013,27.04,7.75,28.1287,74.0070
1993-01-25 10:30:00 UTC,2449012.937500,27.4636,-96.0689,0013,25.47,6.83,26.3699,74.9888
1993-01-25 11:00:00 UTC,2449012.958333,27.4636,-96.0689,0013,24.48,5.65,25.1236,77.0037
1993-01-25 11:30:00 UTC,2449012.979167,27.4636,-96.0689,0013,24.31,3.85,24.6130,81.0007
1993-01-25 12:00:00 UTC,2449013.000000,27.4636,-96.0689,0013,23.33,1.22,23.3619,87.0065
1993-01-25 12:30:00 UTC,2449013.020833,27.4636,-96.0689,0013,23.55,-1.65,23.6077,94.0078
1993-01-25 13:00:00 UTC,2449013.041667,27.4636,-96.0689,0013,21.33,-3.38,21.5961,99.0043
1993-01-25 13:30:00 UTC,2449013.062500,27.4636,-96.0689,0013,18.77,-1.64,18.8415,94.9934
1993-01-25 14:00:00 UTC,2449013.083333,27.4636,-96.0689,0013,17.01,-3.31,17.3291,101.0117
1993-01-25 14:30:00 UTC,2449013.104167,27.4636,-96.0689,0013,15.47,-3.29,15.8160,102.0062
1993-01-25 15:00:00 UTC,2449013.125000,27.4636,-96.0689,0013,13.02,-2.77,13.3114,102.0106
1993-01-25 15:30:00 UTC,2449013.145833,27.4636,-96.0689,0013,11.59,-2.25,11.8064,100.9863
1993-01-25 16:00:00 UTC,2449013.166667,27.4636,-96.0689,0013,9.87,-1.92,10.0550,101.0082
1993-01-25 16:30:00 UTC,2449013.187500,27.4636,-96.0689,0013,8.68,-1.38,8.7890,99.0336
1993-01-25 17:00:00 UTC,2449013.208333,27.4636,-96.0689,0013,7.28,0.13,7.2812,88.9770
1993-01-25 17:30:00 UTC,2449013.229167,27.4636,-96.0689,0013,4.52,0.16,4.5228,87.9727
1993-01-25 18:00:00 UTC,2449013.250000,27.4636,-96.0689,0013,4.21,0.74,4.2745,80.0308
1993-01-25 18:30:00 UTC,2449013.270833,27.4636,-96.0689,0013,2.48,0.39,2.5105,81.0630
1993-01-25 19:00:00 UTC,2449013.291667,27.4636,-96.0689,0013,0.73,1.01,1.2462,35.8584
1993-01-25 19:30:00 UTC,2449013.312500,27.4636,-96.0689,0013,1.05,1.09,1.5135,43.9292
1993-01-25 20:00:00 UTC,2449013.333333,27.4636,-96.0689,0013,-0.42,1.97,2.0143,347.9648
1993-01-25 20:30:00 UTC,2449013.354167,27.4636,-96.0689,0013,-0.72,3.70,3.7694,348.9882
1993-01-25 21:00:00 UTC,2449013.375000,27.4636,-96.0689,0013,-1.25,6.41,6.5307,348.9654
1993-01-25 21:30:00 UTC,2449013.395833,27.4636,-96.0689,0013,-0.19,5.53,5.5333,358.0322
1993-01-25 22:00:00 UTC,2449013.416667,27.4636,-96.0689,0013,-1.82,9.36,9.5353,348.9965
1993-01-25 22:30:00 UTC,2449013.437500,27.4636,-96.0689,0013,-3.05,10.62,11.0493,343.9763
1993-01-25 23:00:00 UTC,2449013.458333,27.4636,-96.0689,0013,-3.72,11.46,12.0487,342.0162
1993-01-25 23:30:00 UTC,2449013.479167,27.4636,-96.0689,0013,-4.73,14.57,15.3185,342.0145
1993-01-26 00:00:00 UTC,2449013.500000,27.4636,-96.0689,0013,-4.64,16.17,16.8226,343.9891
1993-01-26 00:30:00 UTC,2449013.520833,27.4636,-96.0689,0013,-3.59,18.49,18.8353,349.0122
1993-01-26 01:00:00 UTC,2449013.541667,27.4636,-96.0689,0013,-2.18,20.74,20.8543,353.9996
1993-01-26 01:30:00 UTC,2449013.562500,27.4636,-96.0689,0013,0.35,19.84,19.8431,1.0107
1993-01-26 02:00:00 UTC,2449013.583333,27.4636,-96.0689,0013,2.52,17.91,18.0864,8.0091
1993-01-26 02:30:00 UTC,2449013.604167,27.4636,-96.0689,0013,4.18,19.65,20.0897,12.0091
1993-01-26 03:00:00 UTC,2449013.625000,27.4636,-96.0689,0013,5.88,20.52,21.3458,15.9896
1993-01-26 03:30:00 UTC,2449013.645833,27.4636,-96.0689,0013,6.96,19.11,20.3380,20.0120